Location: Friendly Valley
(37.6901°N, 89.9107°W)
Time: 00:46:56
(UTC+00:00)

Envisat - Visible Passes

Search period start: 16 October 2024 00:00
Search period end: 26 October 2024 00:00
Orbit: 762 x 764 km, 98.3° (Epoch: 15 October)

Date Brightness Start Highest point End Pass type
(mag) Time Alt. Az. Time Alt. Az. Time Alt. Az.
16 Oct 5.2 09:38:12 10° N 09:38:57 14° N 09:38:57 14° N visible
17 Oct 5.6 09:00:33 10° NNE 09:00:54 12° NNE 09:00:54 12° NNE visible
18 Oct 5.3 10:02:37 10° NNW 10:02:57 11° NNW 10:02:57 11° NNW visible
19 Oct 5.5 09:24:34 10° N 09:24:53 12° N 09:24:53 12° N visible
21 Oct 5.5 09:48:50 10° N 09:48:52 10° N 09:48:52 10° N visible
